This demonstration page uses our WeatherBlox Daily Observations layout. Learn more.

Left ArrowRight Arrow

Hourly Observations for February 24, 2019

Temp ( °F °C ) Dew Point ( °F °C ) Humidity (%) Winds ( mph kmh ) Pressure ( in mb ) Visibility ( mi km ) Precip ( " mm )
12:15 am 00:15 Cloudy 36 2 36 2 100 100 Calm 30.11 1020 1.75 2.816345 0 0
12:35 am 00:35 Cloudy 36 2 36 2 100 100 NE 3 6 30.07 1018 1.75 2.816345 0 0
12:55 am 00:55 Cloudy 34 1 34 1 100 100 NE 3 6 30.05 1018 1 1.60934 0 0
1:15 am 01:15 Cloudy 34 1 34 1 100 100 Calm 30.04 1017 1 1.60934 0 0
1:35 am 01:35 Cloudy 34 1 34 1 100 100 WNW 7 11 30.09 1019 1.25 2.011675 0 0
1:55 am 01:55 Cloudy 34 1 34 1 100 100 Calm 30.06 1018 1.25 2.011675 0 0
2:15 am 02:15 Cloudy 34 1 34 1 100 100 ENE 7 11 29.99 1016 1.5 2.41401 0 0
2:35 am 02:35 Cloudy 34 1 34 1 100 100 E 10 17 29.91 1013 1.5 2.41401 0 0
2:55 am 02:55 Cloudy 34 1 34 1 100 100 Calm 29.95 1014 2.5 4.02335 0 0
3:15 am 03:15 Cloudy 34 1 34 1 100 100 Calm 29.9 1013 2.5 4.02335 0 0
3:35 am 03:35 Cloudy 34 1 34 1 100 100 SSW 3 6 29.9 1013 2.5 4.02335 0 0
3:55 am 03:55 Cloudy 34 1 34 1 100 100 W 3 6 29.91 1013 2.5 4.02335 0 0
4:15 am 04:15 Cloudy 34 1 34 1 100 100 W 3 6 29.92 1013 3 4.82802 0 0
4:35 am 04:35 Cloudy 34 1 34 1 100 100 Calm 29.91 1013 4 6.43736 0 0
4:55 am 04:55 Cloudy 34 1 34 1 100 100 Calm 29.9 1013 4 6.43736 0 0
5:15 am 05:15 Cloudy 34 1 34 1 100 100 Calm 29.88 1012 4 6.43736 0 0
5:35 am 05:35 Cloudy 34 1 34 1 100 100 Calm 29.88 1012 5 8.0467 0 0
5:55 am 05:55 Cloudy 34 1 34 1 100 100 Calm 29.86 1011 2.5 4.02335 0 0
6:15 am 06:15 Cloudy 34 1 34 1 100 100 SE 3 6 29.83 1010 4 6.43736 0 0
6:35 am 06:35 Cloudy 34 1 34 1 100 100 S 3 6 29.83 1010 5 8.0467 0 0
6:55 am 06:55 Cloudy 34 1 34 1 100 100 Calm 29.81 1009 4 6.43736 0 0
7:15 am 07:15 Cloudy 34 1 34 1 100 100 Calm 29.79 1009 5 8.0467 0 0
7:35 am 07:35 Cloudy 36 2 36 2 100 100 SSE 7 11 29.76 1008 7 11.26538 0 0
7:55 am 07:55 Cloudy 36 2 36 2 100 100 SSE 6 9 29.77 1008 7 11.26538 0 0
8:15 am 08:15 Cloudy 36 2 36 2 100 100 S 8 13 29.76 1008 1.5 2.41401 0 0
8:35 am 08:35 Cloudy 36 2 36 2 100 100 S 8 13 29.74 1007 3 4.82802 0 0
8:55 am 08:55 Cloudy 36 2 36 2 100 100 S 14 22 29.7 1006 7 11.26538 0 0
9:15 am 09:15 Cloudy 36 2 36 2 100 100 S 13 20 29.68 1005 10 16.0934 0 0
9:35 am 09:35 Cloudy 36 2 36 2 100 100 S 14 22 29.66 1004 10 16.0934 0 0
9:55 am 09:55 Cloudy 37 3 37 3 100 100 SSW 10 17 29.66 1004 10 16.0934 0 0
10:15 am 10:15 Cloudy 37 3 37 3 100 100 SW 13 20 29.65 1004 10 16.0934 0 0
10:35 am 10:35 Cloudy 37 3 37 3 100 100 SSW 10 17 29.63 1003 10 16.0934 0 0
10:55 am 10:55 Cloudy 37 3 37 3 100 100 SSW 16 26 29.61 1003 10 16.0934 0 0
11:15 am 11:15 Cloudy 39 4 39 4 100 100 SSW 16 26 29.59 1002 10 16.0934 0 0
11:35 am 11:35 Cloudy 41 5 41 5 100 100 SSW 14 22 29.57 1001 10 16.0934 0 0
11:55 am 11:55 Cloudy 41 5 41 5 100 100 SSW 15 24 29.55 1001 10 16.0934 0 0
12:15 pm 12:15 Cloudy 43 6 43 6 100 100 SSW 13 20 29.53 1000 10 16.0934 0 0
12:35 pm 12:35 Cloudy 43 6 43 6 100 100 SSW 12 19 29.51 999 10 16.0934 0 0
12:55 pm 12:55 Cloudy 43 6 43 6 100 100 S 12 19 29.5 999 10 16.0934 0 0
1:15 pm 13:15 Cloudy 45 7 45 7 100 100 S 12 19 29.48 998 10 16.0934 0 0
1:35 pm 13:35 Cloudy 46 8 45 7 93 93 S 10 17 29.47 998 10 16.0934 0 0
1:55 pm 13:55 Cloudy 46 8 45 7 93 93 S 12 19 29.46 998 10 16.0934 0 0
2:15 pm 14:15 Cloudy 50 10 45 7 82 82 S 10 17 29.47 998 10 16.0934 0 0
2:35 pm 14:35 Cloudy 50 10 45 7 82 82 S 9 15 29.47 998 10 16.0934 0 0
2:55 pm 14:55 Cloudy 50 10 46 8 88 88 SW 6 9 29.47 998 10 16.0934 0 0
3:15 pm 15:15 Partly Cloudy 50 10 50 10 100 100 undefined N/A 29.46 997 10 16.0934 0 0
3:35 pm 15:35 Partly Cloudy 52 11 48 9 88 88 SSW 7 11 29.45 997 10 16.0934 0 0
3:55 pm 15:55 Mostly Cloudy 54 12 50 10 88 88 SW 5 7 29.48 998 10 16.0934 0 0
4:15 pm 16:15 Cloudy 54 12 50 10 88 88 WSW 3 6 29.48 998 10 16.0934 0 0
4:35 pm 16:35 Partly Cloudy 54 12 50 10 88 88 W 5 7 29.49 999 10 16.0934 0 0
4:55 pm 16:55 Sunny 57 14 39 4 51 51 WNW 36 57 29.5 999 10 16.0934 0 0
5:15 pm 17:15 Sunny 55 13 36 2 47 47 WNW 35 56 29.52 1000 10 16.0934 0 0
5:35 pm 17:35 Sunny 54 12 34 1 47 47 WNW 30 48 29.56 1001 10 16.0934 0 0
5:55 pm 17:55 Sunny 52 11 32 0 47 47 WNW 28 44 29.59 1002 10 16.0934 0 0
6:15 pm 18:15 Clear 50 10 32 0 50 50 WNW 29 46 29.61 1003 10 16.0934 0 0
6:35 pm 18:35 Clear 50 10 32 0 50 50 WNW 28 44 29.64 1004 10 16.0934 0 0
6:55 pm 18:55 Partly Cloudy 50 10 30 -1 47 47 W 29 46 29.66 1004 10 16.0934 0 0
7:15 pm 19:15 Clear 46 8 30 -1 53 53 WNW 23 37 29.68 1005 10 16.0934 0 0
7:35 pm 19:35 Clear 46 8 30 -1 53 53 WNW 29 46 29.69 1005 10 16.0934 0 0
7:55 pm 19:55 Clear 46 8 28 -2 50 50 WNW 25 41 29.7 1006 10 16.0934 0 0
8:15 pm 20:15 Clear 46 8 27 -3 46 46 WNW 32 52 29.7 1006 10 16.0934 0 0
8:35 pm 20:35 Clear 46 8 25 -4 43 43 WNW 26 43 29.7 1006 10 16.0934 0 0
8:55 pm 20:55 Clear 46 8 25 -4 43 43 WNW 28 44 29.71 1006 10 16.0934 0 0
9:15 pm 21:15 Clear 45 7 23 -5 42 42 W 16 26 29.72 1006 10 16.0934 0 0
9:35 pm 21:35 Clear 45 7 23 -5 42 42 W 18 30 29.73 1007 10 16.0934 0 0
9:55 pm 21:55 Clear 45 7 23 -5 42 42 WNW 21 33 29.74 1007 10 16.0934 0 0
10:15 pm 22:15 Clear 45 7 21 -6 39 39 WNW 21 33 29.74 1007 10 16.0934 0 0
10:35 pm 22:35 Clear 45 7 21 -6 39 39 W 23 37 29.75 1007 10 16.0934 0 0
10:55 pm 22:55 Clear 45 7 21 -6 39 39 W 18 30 29.75 1007 10 16.0934 0 0
11:15 pm 23:15 Clear 45 7 21 -6 39 39 WNW 28 44 29.75 1007 10 16.0934 0 0
11:35 pm 23:35 Clear 45 7 21 -6 39 39 WNW 23 37 29.75 1007 10 16.0934 0 0
11:55 pm 23:55 Clear 45 7 21 -6 39 39 W 15 24 29.76 1008 10 16.0934 0 0

Powered by AerisWeather